CORVUS BC4

Last updated on Sat Aug 15 2026 00:03:44 GMT+0000 (Coordinated Universal Time)

1 43767U 18099K 26226.59754890 .00002503 00000+0 14573-3 0 9991 2 43767 97.4029 267.8713 0009128 149.1128 211.0642 15.12894855421236
UTC large
Height (km)
Speed (km/s)
/
Latitude / Longitude
Inclination (degrees)
Orbital Period (minutes)
Azimuth
Elevation
Range (km)
Doppler Factor

Next 0 passes for location: London (51.5072 / 0.1276)

No passes found over London.
CORVUS BC4